Home   Weather   Tönisvorst   Past weeks

Flag for Germany Past Weather in Tönisvorst, North Rhine-Westphalia, Germany — Yesterday and Last 2 Weeks

Now
63 °F

Passing clouds.


Feels Like: 63 °F
Forecast: 54 / 75 °F
Wind: 5 mph from Southeast

Location: Monchengladbach Airport

Current Time: Aug 31, 2016 at 10:03:01 AM

Latest Report: Aug 31, 2016 at 9:20 AM


Visibility: N/A

Pressure: 30.15 "Hg

Humidity: 68%

Dew Point: 52 °F

Location of TönisvorstLocation

Past Weather in Tönisvorst — Graph

°F

Tönisvorst Temperature Yesterday

Maximum temperature yesterday: 75 °F (at 3:50 PM)
Minimum temperature yesterday: 50 °F (at 6:50 AM)
Average temperature yesterday: 68 °F

High & Low Weather Summary for the Past Weeks

 TemperatureHumidityPressure
High93 °F (Aug 27, 5:20 PM)100% (Aug 22, 9:50 AM)30.33 "Hg (Aug 22, 9:50 AM)
Low50 °F (Aug 30, 6:50 AM)26% (Aug 25, 4:50 PM)29.77 "Hg (Aug 18, 2:50 PM)
Average74 °F59%30.04 "Hg
* Reported Aug 16 8:20 AM — Aug 31 8:50 AM, Tönisvorst, Weather by CustomWeather, © 2016

Note: Actual official high and low records may vary slightly from our data, if they occured in-between our weather recording intervals... More about our weather records

Advertising

Tönisvorst Weather History for the Previous 24 Hours

Scroll right to see more
 ConditionsComfort  
Time TempWeatherWind HumidityBarometerVisibility
8:50 AM
Wed, Aug 31
61 °FPassing clouds.5 mph72%30.15 "HgN/A
8:20 AM57 °FSunny.5 mph82%30.15 "Hg10 mi
7:50 AM55 °FSunny.5 mph82%30.15 "Hg10 mi
8:20 PM
Tue, Aug 30
68 °FClear.5 mph49%30.21 "Hg10 mi
7:50 PM70 °FClear.3 mph50%30.21 "Hg10 mi
7:20 PM73 °FClear.3 mph41%30.21 "Hg10 mi
6:50 PM73 °FPassing clouds.5 mph38%30.21 "HgN/A
6:20 PM75 °FPassing clouds.5 mph34%30.24 "HgN/A
5:50 PM75 °FPassing clouds.7 mph34%30.24 "HgN/A
5:20 PM75 °FPassing clouds.6 mph36%30.24 "HgN/A
4:50 PM75 °FClear.5 mph36%30.24 "Hg10 mi
4:20 PM73 °FClear.3 mph41%30.24 "Hg10 mi
3:50 PM75 °FClear.3 mph36%30.27 "Hg10 mi
3:20 PM73 °FPassing clouds.6 mph41%30.27 "HgN/A
2:50 PM73 °FPassing clouds.6 mph38%30.27 "HgN/A
2:20 PM73 °FClear.3 mph44%30.30 "Hg10 mi
1:50 PM72 °FClear.3 mph50%30.30 "Hg10 mi
1:20 PM72 °FPassing clouds.3 mph50%30.30 "HgN/A
12:50 PM72 °FPassing clouds.2 mph53%30.30 "HgN/A
12:20 PM70 °FPassing clouds.5 mph57%30.30 "HgN/A
11:50 AM68 °FPassing clouds.5 mph56%30.33 "HgN/A
11:20 AM68 °FPassing clouds.5 mph60%30.33 "HgN/A
10:50 AM66 °FSunny.2 mph68%30.33 "Hg10 mi
10:20 AM64 °FSunny.1 mph73%30.33 "Hg10 mi
Weather by CustomWeather, © 2016

See weather overviewHow to use our weather pages